Torna al catalogo

STARLINK-5737

AttivoComunicazioniVLEO
NORAD 55570·PAYLOAD·🇺🇸 United States

Lanciato Feb 12, 2023 da Cape Canaveral Space Force Station

Loading…

Prossimi Passaggi (prossime 24 ore)

TLE

AggiornatoSource: CelesTrak SupGP

Epoca: Sep 15, 2026, 02:20 UTC

1 55570C 23020B   26258.09770833 -.00020668  00000+0 -74858-3 0  2585
2 55570  43.0048  15.6092 0002187 272.5074 293.0640 15.27588103    16

Traccia STARLINK-5737 in tempo reale con AllMySat

Download on the App Store